Location: Igri�s
(42.2144°N, 0.4320°W)
Time: 17:33:25
(UTC+00:00)

Tsikada Rocket - Pass Details

Date: 13 August 2020
Orbit: 957 x 1010 km, 82.9° (Epoch: 17 September)

Event Time Altitude Azimuth Distance (km) Brightness Sun altitude
Rises 22:19:28 0° 354° (N) 3,724 8.0 -28.4°
Reaches altitude 10° 22:22:02 10° 357° (N) 2,764 7.1 -28.6°
Enters shadow 22:28:17 70° 76° (ENE) 1,044 4.0 -29.1°
